Notices

What's New in latest Release from April 7th, 2021:

- Updated Glossary, including Speed of Maximum Gust, and Total Hourly Precipitation

- Updated national and regional climate services offices contacts and prices information

- Addition of station inventory lists for 1981-2010, 1971-2000, and 1961-1990 Normals.

If you haven't already, please take our survey and provide feedback about our website: https://eccc.sondage-survey.ca/f/LanguageSelection.aspx?s=442ca660-fcf1-47c0-95a9-59707d6fd709

Hourly Data Report for April 08, 2017

KUGAARUK CLIMATE
NUNAVUT

68°32'15.060" N
89°47'47.020" W
15.80 m
2303094
71407
NBB

Download Data

Hourly Data (April 2017)
Hourly Data Report for April 8, 2017
TIME
LST
Temp Definition
°C
Dew Point Definition
°C
Rel Hum Definition
%
Precip. Amount Definition
mm

Wind Dir Definition
10's deg

Wind Spd Definition
km/h
Visibility Definition
km
Stn Press Definition
kPa
Hmdx Definition


Wind Chill Definition


Weather Definition


00:00 -23.0 -25.9 77 0.0 24 12   100.42   -32 LegendNANA
01:00 -21.9 -24.7 78 0.2 24 8   100.42   -28 LegendNANA
02:00 -23.7 -26.5 78 0.0 24 16   100.42   -34 LegendNANA
03:00 -23.7 -26.4 78 0.0 24 16   100.41   -34 LegendNANA
04:00 -23.4 -26.3 78 0.0 26 17   100.39   -34 LegendNANA
05:00 -22.9 -26.1 75 0.0 24 10   100.37   -31 LegendNANA
06:00 -21.2 -24.5 75 0.0 26 12   100.31   -29 LegendNANA
07:00 -21.0 -24.9 71 0.0 27 28   100.25   -34 LegendNANA
08:00 -20.2 -24.4 69 0.0 26 19   100.25   -30 LegendNANA
09:00 -20.2 -24.5 69 0.0 24 21   100.21   -31 LegendNANA
10:00 -20.3 -24.5 69 0.0 26 28   100.18   -33 LegendNANA
11:00 -20.2 -24.9 66 0.0 26 27   100.17   -32 LegendNANA
12:00 -20.5 -24.6 70 0.0 23 26   100.16   -32 LegendNANA
13:00 -20.2 -24.5 68 0.0 25 26   100.14   -32 LegendNANA
14:00 -19.4 -23.2 72 0.0 24 31   100.11   -32 LegendNANA
15:00 -18.7 -22.6 71 0.0 24 27   100.08   -30 LegendNANA
16:00 -18.9 -22.1 76 0.0 24 27   100.07   -31 LegendNANA
17:00 -19.5 -22.7 75 0.0 23 25   100.07   -31 LegendNANA
18:00 -20.0 -23.0 77 0.0 22 32   100.05   -33 LegendNANA
19:00 -20.0 -22.8 78 0.0 22 32   100.04   -33 LegendNANA
20:00 -19.4 -22.1 79 0.0 23 36   100.00   -33 LegendNANA
21:00 -19.4 -21.9 80 0.0 23 44   99.94   -34 LegendNANA
22:00 -19.9 -22.5 79 0.0 23 39   99.97   -34 LegendNANA
23:00 -20.7 -23.1 81 0.0 23 49   99.95   -36 LegendNANA

Notes on Data Quality.

Legend

  • E = Estimated
  • M = Missing
  • NA = Not Available*
  • [empty] = Indicates an unobserved value
Date modified: